Theta_e
336 339 352 356 355 355 354 352 351 352 352 352 352 352 352 351 351 351 349 347 345 344 342 342 342 342 345 345 347 348 347 346 346 347 347 347 348 349 349 348 349 349 350
335 339 350 355 356 356 355 354 353 352 352 352 352 352 352 350 350 348 346 347 345 342 340 340 340 340 340 342 343 344 342 342 344 344 343 345 347 347 347 346 347 348 350
335 341 351 353 354 355 354 353 353 352 351 351 351 351 352 351 348 346 346 346 343 341 339 339 339 337 337 337 338 339 338 341 340 343 343 343 343 344 344 343 343 343 345
336 343 350 349 353 354 354 353 352 352 352 350 349 349 348 348 347 346 344 345 341 340 338 337 335 334 333 333 334 335 339 341 339 340 342 343 341 342 341 340 340 340 340
337 344 348 347 354 354 354 352 352 352 352 349 348 347 346 345 346 347 345 343 340 339 337 335 333 330 328 328 331 333 339 339 337 340 341 342 342 340 340 339 337 337 338
337 343 345 348 353 352 353 352 351 351 352 351 348 347 347 348 347 342 343 341 337 335 334 332 331 328 325 323 326 332 336 335 333 336 336 337 338 338 338 336 336 337 337
336 341 344 346 351 352 351 351 350 350 351 351 350 349 346 345 342 339 339 339 337 335 333 331 329 325 322 320 323 327 332 329 330 331 332 335 338 337 336 335 333 334 333
335 338 342 338 343 347 348 348 348 348 349 349 348 348 347 344 341 337 336 336 335 333 331 330 327 323 319 318 321 325 327 324 324 325 326 329 333 336 336 333 334 334 333
334 336 339 341 341 337 342 343 344 346 346 346 345 347 344 342 340 338 336 335 332 332 331 328 325 322 318 316 318 321 322 319 320 320 320 324 329 330 331 332 331 331 330
325 332 335 338 341 344 346 336 338 341 341 342 340 339 336 336 335 334 331 334 332 332 331 329 324 321 319 313 315 314 313 312 313 315 317 321 325 325 326 327 327 328 328
305 311 323 334 337 340 343 340 332 334 336 337 337 332 332 337 334 332 328 331 333 333 331 329 324 321 314 307 308 308 305 307 308 309 311 317 321 322 321 321 322 324 325
300 302 305 313 332 337 339 341 340 340 343 343 343 343 339 334 331 329 325 326 329 329 330 328 324 316 306 300 300 301 300 301 304 304 307 314 318 319 320 320 321 322 324
298 300 301 302 306 331 337 339 340 339 338 341 338 337 336 332 330 327 326 326 326 321 322 321 318 314 307 302 301 300 300 300 301 303 302 308 313 318 321 320 320 322 323
297 298 300 301 303 309 334 337 338 338 336 337 336 335 331 329 326 325 325 325 324 322 320 317 314 313 309 303 300 300 299 299 300 301 302 304 310 313 319 322 320 322 323
296 297 299 301 304 307 322 334 335 335 334 334 332 331 332 329 325 324 323 322 321 319 319 316 316 313 310 305 300 299 299 299 299 299 302 302 307 314 317 321 323 323 325
295 296 298 302 308 311 318 331 331 332 332 332 332 330 328 328 327 324 323 323 319 319 315 314 312 313 310 304 302 299 299 299 298 298 299 302 305 311 315 320 324 327 326
293 295 297 303 311 320 322 326 327 327 327 326 325 325 324 324 324 323 323 323 322 315 313 310 307 306 307 303 302 300 298 298 298 297 298 299 302 305 309 316 321 326 326
292 293 298 302 315 318 317 317 316 314 313 313 314 316 316 319 322 321 319 318 317 315 312 310 307 306 306 302 302 302 299 297 297 297 297 298 299 301 306 309 314 319 322
291 293 296 299 306 310 309 308 307 307 306 306 306 307 309 311 314 314 313 312 313 311 309 307 304 302 302 301 299 299 299 298 298 296 297 297 298 300 302 305 307 308 313
290 292 294 296 297 304 305 304 303 301 299 298 297 297 299 303 307 308 308 307 309 307 306 305 302 300 297 296 296 296 297 298 298 297 296 295 296 297 299 302 305 307 306
289 290 291 293 294 298 299 299 298 295 296 294 294 293 294 295 298 301 303 302 304 303 302 301 300 299 298 296 295 299 299 297 296 296 295 295 295 295 296 298 302 304 305
286 288 289 290 292 294 295 295 295 293 292 291 290 289 289 291 293 294 295 297 298 299 298 298 298 298 297 295 294 292 293 299 295 294 294 294 294 295 295 296 298 299 302
284 284 286 288 289 290 292 293 292 291 289 287 287 286 287 288 288 289 290 292 292 293 293 295 295 296 295 297 295 295 293 292 291 298 295 294 294 294 295 295 295 296 298
283 284 285 286 286 286 288 287 286 285 283 284 285 286 286 287 286 287 287 287 288 288 288 291 292 293 295 292 295 294 293 292 291 290 294 296 294 293 295 296 295 295 296
283 283 283 284 284 285 285 286 285 283 284 284 284 285 285 285 286 285 285 286 285 286 286 286 287 288 290 291 291 292 292 292 290 287 288 291 295 296 295 295 295 295 295
283 283 283 283 282 283 284 283 283 283 283 283 283 283 283 284 284 284 284 284 285 285 284 285 285 285 285 286 287 289 290 290 290 289 287 290 290 293 294 295 294 295 295
Wind_Speed
7 7 9 11 13 14 13 12 12 11 11 11 11 11 12 11 10 14 14 14 13 13 12 12 12 11 11 10 11 14 15 13 13 14 14 13 13 15 16 16 12 10 11
4 9 9 11 13 14 13 12 11 11 11 11 11 9 10 12 13 13 12 12 11 12 11 11 11 11 11 10 11 13 11 10 11 11 10 10 11 14 15 16 15 15 16
8 11 11 10 11 15 12 11 10 10 11 11 11 10 11 12 11 12 12 11 11 13 11 11 10 11 11 10 9 9 9 8 7 8 8 7 9 12 14 14 14 15 15
9 11 10 9 10 13 13 12 10 10 10 10 9 9 9 9 9 10 11 11 12 12 10 10 10 10 10 9 8 8 8 8 6 7 6 6 8 12 12 13 14 15 15
7 9 8 9 10 12 13 15 13 9 9 9 9 9 8 8 8 7 7 11 12 11 10 8 9 10 10 10 8 7 8 9 9 6 6 5 5 10 10 12 12 13 13
6 7 8 10 9 11 11 13 13 12 10 10 9 9 10 10 11 10 11 11 12 11 8 6 8 10 11 10 8 7 6 8 6 6 6 6 5 8 8 9 9 9 10
5 5 7 9 9 8 10 11 11 12 11 11 12 9 10 10 9 8 8 9 8 8 7 5 7 9 10 9 8 6 7 8 5 5 5 5 6 7 7 8 7 7 7
3 3 3 4 4 6 8 9 11 11 9 8 10 12 12 10 7 5 4 4 5 6 4 4 7 8 9 9 8 7 7 7 5 5 5 5 9 6 6 6 6 5 5
3 2 2 4 4 3 5 5 7 8 8 8 7 11 11 11 8 5 5 4 3 3 3 3 6 7 8 8 8 8 8 8 5 4 4 3 7 5 5 5 4 4 4
5 4 2 2 5 6 5 5 6 6 6 6 5 7 8 8 7 6 5 3 2 2 4 4 6 6 8 9 10 9 8 7 5 4 3 4 7 5 5 4 4 4 3
9 9 7 4 5 4 4 5 6 6 5 6 4 5 8 5 6 4 2 2 2 4 6 6 5 8 8 8 9 10 7 4 4 3 3 9 8 6 5 5 4 3 3
13 12 9 8 6 4 3 4 4 4 5 5 5 6 5 4 3 4 5 3 4 6 5 5 7 8 6 3 3 5 3 4 3 3 3 9 8 7 5 4 4 3 2
9 8 11 9 8 6 4 3 2 2 2 4 5 3 2 3 3 2 2 2 2 4 2 4 3 3 4 3 3 3 3 3 2 2 3 8 8 8 8 4 4 3 1
10 10 11 10 8 6 3 3 2 2 2 1 2 3 4 3 3 3 3 3 2 2 3 3 2 2 3 3 4 4 4 3 2 2 3 7 8 7 7 7 5 4 2
10 11 12 10 8 6 6 3 3 2 1 1 1 1 2 4 5 4 3 3 3 3 2 2 2 1 1 2 2 3 4 4 4 3 3 7 8 8 9 8 8 5 4
12 12 12 11 9 4 4 3 3 4 3 3 3 2 1 1 1 4 4 5 4 3 2 2 3 3 0 1 2 2 3 3 4 5 4 5 9 10 10 10 10 9 6
11 13 13 11 10 6 8 5 5 5 7 6 6 7 6 4 3 3 2 3 2 2 3 2 2 1 3 1 3 3 4 4 3 4 4 4 6 9 11 11 11 12 10
10 12 10 9 11 13 13 11 9 11 9 9 9 9 13 11 8 5 3 4 3 2 2 2 2 2 3 2 2 3 3 4 6 6 4 3 3 4 6 10 12 12 12
11 12 13 12 12 14 14 12 12 13 10 9 9 9 12 12 11 9 7 6 4 5 4 3 3 3 3 4 4 3 4 5 6 5 7 6 6 5 3 7 10 11 12
10 11 11 10 11 9 9 10 10 11 11 10 10 11 13 11 11 8 7 7 7 5 5 3 4 2 2 2 4 4 3 4 5 5 7 6 6 6 5 5 4 5 10
11 13 14 13 11 7 6 6 8 9 9 10 10 15 15 13 13 10 8 8 7 8 5 4 2 3 3 2 3 3 2 3 3 2 3 4 6 6 6 5 4 4 4
11 10 11 12 12 10 5 5 5 6 9 9 9 13 15 15 15 12 12 10 11 8 9 9 6 2 1 3 2 1 4 2 2 2 2 3 3 3 5 6 6 6 6
13 12 11 10 11 10 8 6 7 7 6 8 9 10 12 13 13 14 14 11 12 10 9 10 9 9 5 4 5 3 3 3 4 2 2 2 5 4 4 4 5 6 7
9 9 10 11 11 11 10 13 15 11 10 6 8 7 9 12 14 13 13 12 11 9 11 9 9 8 6 7 3 5 2 3 4 6 1 4 5 5 5 5 5 6 6
6 7 8 10 13 12 11 11 11 12 8 6 7 10 10 10 12 13 12 12 12 9 10 11 11 11 8 6 5 4 3 2 1 2 9 6 8 7 6 7 7 7 7
5 7 8 11 11 11 11 10 12 11 9 9 8 8 7 7 7 12 11 10 10 10 10 9 9 11 9 7 6 6 5 4 5 3 4 10 10 8 6 7 7 7 7
Wind_Direction
227 192 182 161 158 148 139 131 121 118 116 117 122 122 122 119 104 84 79 81 77 65 60 55 55 55 56 56 48 71 69 59 59 60 60 60 61 62 54 43 41 57 53
178 180 178 165 173 147 141 138 134 129 126 125 114 118 124 119 105 92 91 89 82 73 58 51 50 55 50 51 45 54 62 61 62 61 56 54 60 59 56 47 41 46 54
169 170 173 171 158 142 143 141 139 136 133 127 122 115 111 109 105 104 106 94 79 70 61 50 49 49 49 46 48 54 50 57 70 70 55 63 68 62 57 52 47 44 39
159 168 172 170 160 143 150 146 148 147 143 138 134 129 121 117 115 117 116 104 87 82 62 45 41 41 40 38 37 45 56 53 87 69 71 63 66 68 62 55 50 42 33
158 169 171 172 172 162 166 164 155 152 147 142 139 132 126 131 120 118 133 103 88 77 65 33 30 32 26 25 25 36 62 68 78 77 72 73 81 82 70 63 60 53 40
163 169 175 177 182 178 185 168 159 156 158 154 153 145 130 107 107 93 83 94 94 86 74 34 29 23 21 16 16 32 62 72 72 76 68 51 71 76 70 67 68 63 48
163 181 189 186 181 185 201 165 166 162 170 178 164 164 143 124 116 104 88 90 86 84 76 41 36 26 22 18 15 23 53 60 58 59 56 39 46 54 55 53 53 54 57
157 167 195 210 199 192 206 177 173 172 183 218 157 164 160 140 136 111 80 69 69 56 47 36 47 34 31 32 23 39 50 53 49 42 30 22 3 27 37 51 61 53 48
61 129 171 195 218 226 213 204 180 184 197 221 180 194 156 139 139 123 101 80 84 104 70 36 58 41 35 33 32 44 54 51 45 32 19 14 350 18 27 33 29 39 30
35 22 329 240 215 216 206 209 210 202 209 232 219 176 142 134 139 137 123 116 79 48 81 61 67 48 47 34 31 43 47 49 42 27 17 7 0 14 15 13 10 359 13
7 3 345 302 244 234 212 202 199 215 220 236 239 159 133 150 147 145 136 132 54 68 72 91 68 70 54 40 30 28 30 26 19 19 4 350 351 351 355 0 350 329 340
354 351 357 342 285 238 210 189 195 190 208 218 206 171 149 159 156 162 144 131 83 81 72 102 89 80 53 33 21 26 32 15 12 1 358 349 348 336 331 347 338 326 323
328 337 344 340 329 288 216 185 166 168 182 236 211 142 151 124 162 135 137 151 129 108 97 91 93 60 53 35 22 17 11 15 8 352 344 346 343 336 326 314 308 289 307
342 334 333 335 324 293 266 184 163 149 149 189 356 167 152 150 149 163 161 156 157 147 144 139 127 98 61 34 15 355 355 352 346 338 328 338 337 328 319 312 293 277 265
349 338 335 329 325 302 249 158 130 132 135 157 159 110 191 176 161 163 155 162 178 162 181 159 135 122 73 17 4 355 344 338 329 320 313 319 326 329 322 315 300 270 246
344 344 334 336 328 293 215 123 110 104 83 49 24 29 182 301 222 184 178 191 182 188 147 175 167 160 222 326 317 331 326 323 322 321 320 318 322 325 326 319 304 286 257
346 336 349 348 346 74 120 86 69 55 52 44 39 28 17 17 357 336 280 225 231 148 146 132 132 170 158 226 297 315 313 302 290 300 311 313 318 320 322 319 318 312 293
354 354 356 9 37 58 64 65 65 57 57 46 40 37 33 31 30 35 27 22 16 28 16 38 23 339 330 336 319 312 303 300 296 286 275 274 289 301 312 316 319 317 318
0 1 14 19 38 69 77 80 75 70 62 54 46 40 32 38 38 56 45 35 34 45 58 53 58 10 13 357 325 302 297 285 287 289 278 278 274 268 278 301 316 320 324
12 20 28 36 33 56 76 76 72 67 60 50 42 39 34 34 34 50 55 43 39 63 42 28 79 46 83 302 290 286 258 266 277 291 301 298 291 290 296 297 299 304 318
37 38 30 35 23 48 64 80 65 71 62 54 48 43 42 38 36 34 46 42 37 48 41 47 50 35 51 320 321 316 292 296 316 301 310 290 290 299 297 284 280 284 294
28 36 46 42 37 39 62 75 75 85 68 60 50 46 41 39 36 42 38 37 39 47 39 27 20 358 22 3 26 221 339 316 21 327 343 348 342 292 279 286 294 294 292
30 17 33 47 59 56 63 86 90 79 63 61 47 51 40 47 45 45 45 43 41 35 38 35 26 33 6 17 353 334 330 322 322 330 303 329 341 324 314 305 286 275 273
25 17 30 48 60 56 58 72 75 85 87 71 72 65 53 43 46 44 45 46 44 41 38 31 31 30 23 23 357 23 334 323 321 316 316 314 335 319 305 294 286 282 271
39 36 31 52 59 60 68 82 92 94 93 85 70 65 52 50 45 41 41 42 44 39 34 34 31 33 32 28 13 338 341 309 314 285 307 319 305 308 297 283 287 279 272
42 43 34 70 59 55 70 73 86 94 92 83 66 66 49 45 39 38 38 41 41 37 32 28 27 30 23 29 17 15 4 342 321 301 284 301 296 305 305 294 288 280 275